Regional Weather Roundup
Issued by NWS

Home | Current Version | Previous Version | Text Only | Print | Product List | Glossary Off
Versions: 1 2 3 4 5 6 7 8 9 10 11 12 13 14 15 16 17 18 19 20 21 22 23 24 25 26 27 28 29 30 31 32 33 34 35 36 37 38 39 40 41 42 43 44 45 46 47 48 49 50

000
ASUS43 KFSD 212002
RWRSD

WEATHER ROUNDUP FOR SOUTH DAKOTA
NATIONAL WEATHER SERVICE SIOUX FALLS SD
300 PM CDT SUN SEP 21 2014

NOTE: "FAIR" INDICATES FEW OR NO CLOUDS BELOW 12,000 FEET WITH NO
SIGNIFICANT WEATHER AND/OR OBSTRUCTIONS TO VISIBILITY.


SDZ001>005-009-010-012>017-212100-
NORTHWEST AND NORTH CENTRAL SOUTH DAKOTA

CITY           SKY/WX    TMP DP  RH WIND       PRES   REMARKS
FAITH            N/A     70  36  28 CALM      30.29F
MOBRIDGE       SUNNY     72  44  36 NW5       30.24F
$$

SDZ012>016-024>037-041>051-057-063-072>074-212100-
SOUTHWEST AND SOUTH CENTRAL SOUTH DAKOTA

CITY           SKY/WX    TMP DP  RH WIND       PRES   REMARKS
RAPID CTY ARPT SUNNY     72  37  28 E8        30.30F
PIERRE         SUNNY     72  41  32 NW12      30.26F
CUSTER         SUNNY     68  35  29 CALM      30.36F
ELLSWORTH AFB  SUNNY     73  38  28 VRB5      30.30F
PHILIP         SUNNY     75  35  23 VRB5      30.27F
PINE RIDGE     SUNNY     73  39  29 VRB5      30.31F
WINNER         FAIR      74  39  28 N13G22    30.27F
$$

SDZ004>011-016>023-039-040-212100-
NORTHEAST SOUTH DAKOTA

CITY           SKY/WX    TMP DP  RH WIND       PRES   REMARKS
ABERDEEN       MOSUNNY   69  46  43 N7        30.25F
WATERTOWN      MOSUNNY   67  45  45 N17       30.23F
$$

SDZ017-020-022-023-036>040-048>070-212100-
SOUTHEAST SOUTH DAKOTA

CITY           SKY/WX    TMP DP  RH WIND       PRES   REMARKS
SIOUX FALLS    PTSUNNY   69  45  41 N13G23    30.23S
HURON          MOSUNNY   71  44  37 N9        30.24F
CHAMBERLAIN    SUNNY     71  42  34 N7        30.26F
MITCHELL       MOSUNNY   71  43  36 N13G22    30.25F
YANKTON        PTSUNNY   70  46  43 NW15      30.24F
$$

ABBREVIATIONS USED IN REMARKS
   TC - TEMPERATURE IN CELSIUS
  WCI - WIND CHILL INDEX
   HX - HEAT INDEX
  VSB - VISIBILITY




USA.gov is the U.S. government's official web portal to all federal, state and local government web resources and services.